Weather Roundup
Issued by NWS Chicago, IL

Home | Current Version | Previous Version | Text Only | Print | Product List | Glossary Off
Versions: 1 2 3 4 5 6 7 8 9 10 11 12 13 14 15 16 17 18 19 20 21 22 23 24 25 26 27 28 29 30 31 32 33 34 35 36 37 38 39 40 41 42 43 44 45 46 47 48 49 50

000
NZUS59 KLOT 040208
HRRLOT

CHICAGO AREA WEATHER ROUNDUP
NATIONAL WEATHER SERVICE CHICAGO/ROMEOVILLE IL
900 PM CDT FRI JUL 03 2015

NOTE: "FAIR" INDICATES FEW OR NO CLOUDS BELOW 12,000 FEET WITH NO
SIGNIFICANT WEATHER AND/OR OBSTRUCTIONS TO VISIBILITY.

* THESE STATIONS ARE NOT UNDER NWS QUALITY CONTROL. THEY ALSO MAY NOT
  REPORT WEATHER SUCH AS PRECIPITATION OR FOG.

ILZ005-006-012>014-019>023-040300-
NORTHEAST ILLINOIS

CITY           SKY/WX    TMP DP  RH WIND       PRES   REMARKS
OHARE          MOCLDY    66  52  60 SE5       29.92R
MIDWAY         MOCLDY    69  54  58 E6        29.92S
AURORA         CLEAR     67  61  81 W6        29.92S
LANSING*       CLEAR     65  52  63 CALM      29.93S
JOLIET*        CLEAR     69  57  66 CALM      29.92S
WAUKEGAN       CLEAR     59  55  87 CALM      29.91S
DUPAGE AIRPORT CLEAR     68  54  60 E5        29.91S
WHEELING       CLEAR     66  53  63 CALM      29.93S
KANKAKEE*      LGT RAIN  66  60  81 CALM      29.92S
MORRIS*        CLEAR     67  62  82 NW3       29.89F
LEWIS AIRPORT* CLEAR     67  53  61 E6        29.92S
NORTHERLY IS     N/A     64  57  78 SE1         N/A
$$

WIZ051-052-058>065-066-070>072-040300-
SOUTHEAST WISCONSIN

CITY           SKY/WX    TMP DP  RH WIND       PRES   REMARKS
MILWAUKEE      MOCLDY    63  53  70 SE3       29.92S
KENOSHA*       CLEAR     64  53  67 SE3       29.92S
RACINE*        CLEAR     63  52  67 CALM      29.94R
BURLINGTON     CLEAR     61  55  82 CALM      29.92S
WAUKESHA       CLEAR     66  54  63 CALM      29.93S
WEST BEND      CLEAR     63  52  67 CALM      29.92R
$$

INZ001>003-010>013-019-020-040300-
NORTHWEST INDIANA

CITY           SKY/WX    TMP DP  RH WIND       PRES   REMARKS
GARY*          MOCLDY    64  57  77 CALM      29.93S
MICHIGAN CITY* NOT AVBL
RENSSELAER*    NOT AVBL
VALPARAISO     CLEAR     63  54  72 CALM      29.93S
$$

LMZ740>746-040300-
SOUTHERN LAKE MICHIGAN

STATION/POSITION TIME  SKY/WX   TEMP WIND        PRES    VSBY
                                AIR  DIR/SP/G
                 (UTC)          (F)  (DEG/KT/KT) (MB)    (MI)
HARRISON CRIB    0100            63   80/  7/  8   N/A
BURNHAM HARBOR   0200            63   CALM  /  2   N/A
CALUMET HARBOR   0100            64   40/  3/  4   N/A
BURNS HARBOR     0100            65   80/  8/ 10 1013.9F
MICHIGAN CITY    0100            63   50/  5/  5   N/A
$$

ABBREVIATIONS USED IN REMARKS
   TC - TEMPERATURE IN CELSIUS
  WCI - WIND CHILL INDEX
   HX - HEAT INDEX
  VSB - VISIBILITY
$$



USA.gov is the U.S. government's official web portal to all federal, state and local government web resources and services.